Weather reports worldwide

Advertisment
Brodersby-Schönhagen, Germany (10042): temperature & dewpoint: 10.09.2019 05:00:00 - 16.09.2019 05:00:00 (CEST)Brodersby-Schönhagen, Germany (10042): temperature 5cm & temperature -5cm: 10.09.2019 05:00:00 - 16.09.2019 05:00:00 (CEST)Brodersby-Schönhagen, Germany (10042): temperature -20cm & temperature -100cm: 10.09.2019 05:00:00 - 16.09.2019 05:00:00 (CEST)Brodersby-Schönhagen, Germany (10042): wind speed & gusts: 10.09.2019 05:00:00 - 16.09.2019 05:00:00 (CEST)Brodersby-Schönhagen, Germany (10042): wind direction: 10.09.2019 05:00:00 - 16.09.2019 05:00:00 (CEST)Brodersby-Schönhagen, Germany (10042): reduced air pressure: 10.09.2019 05:00:00 - 16.09.2019 05:00:00 (CEST)Brodersby-Schönhagen, Germany (10042): visibility: 10.09.2019 05:00:00 - 16.09.2019 05:00:00 (CEST)Brodersby-Schönhagen, Germany (10042): sunshine duration: 10.09.2019 05:00:00 - 16.09.2019 05:00:00 (CEST)Brodersby-Schönhagen, Germany (10042): precipitation: 10.09.2019 05:00:00 - 16.09.2019 05:00:00 (CEST)
Date & Time tt [°C] td [°C] tt 5cm [°C] tt -5cm [°C] tt -20cm [°C] tt -100cm [°C] ff [km/h] ff [kn] fx [km/h] fx [kn] dd ppp [hPa] vv [km] sd [min] rr [mm]
16.09.2019 05:00:00 9,6 6,4 8,3 9,6 12,7 15,6 17 9 23 12 WSW 1017,9 22 0 0,0
16.09.2019 04:00:00 9,3 6,2 7,6 9,8 12,9 15,6 12 7 22 12 W 1018,2 22 0 0,0
16.09.2019 03:00:00 9,9 6,4 8,4 10,2 13,2 15,6 17 9 24 13 W 1018,1 21 0 0,0
16.09.2019 02:00:00 10,3 6,4 8,9 10,5 13,4 15,6 17 9 27 15 W 1018,0 22 0 0,0
16.09.2019 01:00:00 10,4 6,6 9,1 10,9 13,7 15,6 16 9 25 13 W 1018,2 22 0 0,0
16.09.2019 00:00:00 10,7 7,0 9,5 11,3 14,0 15,6 16 9 24 13 W 1017,9 21 0 0,0
15.09.2019 23:00:00 11,1 7,3 9,8 11,9 14,3 15,6 15 8 23 12 W 1017,9 20 0 0,0
15.09.2019 22:00:00 11,9 8,0 10,5 12,5 14,6 15,7 17 9 28 15 W 1017,6 20 0 0,0
15.09.2019 21:00:00 12,8 8,8 11,7 13,2 14,8 15,7 19 10 34 19 W 1017,3 24 0 0,0
15.09.2019 20:00:00 13,3 7,9 12,3 13,8 15,1 15,7 18 10 41 22 W 1017,2 25 0 0,0
15.09.2019 19:00:00 14,4 7,7 13,9 14,7 15,2 15,7 30 16 52 28 W 1016,8 26 0 0,0
15.09.2019 18:00:00 15,4 9,4 15,1 15,5 15,2 15,7 29 16 47 25 W 1016,7 27 0 0,0
15.09.2019 17:00:00 16,0 8,6 16,0 16,3 15,1 15,7 34 18 54 29 WNW 1017,0 34 5 0,0
15.09.2019 16:00:00 17,4 9,9 18,3 17,0 14,9 15,7 31 17 61 33 WNW 1016,4 37 37 0,0
15.09.2019 15:00:00 18,4 11,4 19,6 17,0 14,5 15,7 34 18 54 29 W 1015,8 42 23 0,1
15.09.2019 14:00:00 18,5 14,2 19,8 16,4 14,1 15,7 31 17 46 25 W 1015,5 42 23 0,0
15.09.2019 13:00:00 16,9 14,5 17,2 15,1 13,8 15,7 26 14 48 26 W 1015,7 58 0 0,0
15.09.2019 12:00:00 16,3 14,4 16,1 14,8 13,5 15,7 27 14 45 25 WSW 1015,8 20 0 0,0
15.09.2019 11:00:00 15,8 14,7 15,6 14,0 13,3 15,7 26 14 45 24 WSW 1015,8 5 0 0,1
15.09.2019 10:00:00 15,4 13,0 15,0 13,0 13,2 15,7 29 16 47 25 WSW 1015,7 12 0 0,0
15.09.2019 09:00:00 14,4 11,0 14,0 12,0 13,1 15,7 32 17 47 26 WSW 1016,2 38 0 0,0
15.09.2019 08:00:00 13,1 9,4 12,4 11,5 13,2 15,7 28 15 40 22 WSW 1016,6 41 0 0,0
15.09.2019 07:00:00 12,6 8,9 11,7 11,4 13,3 15,7 28 15 48 26 SW 1017,1 48 0 0,0
15.09.2019 06:00:00 12,7 8,6 11,6 11,4 13,5 15,7 31 17 47 25 SW 1017,6 56 0 0,0
15.09.2019 05:00:00 12,7 8,7 11,6 11,6 13,6 15,7 31 17 47 25 SW 1019,1 58 0 0,0
15.09.2019 04:00:00 12,9 8,7 11,9 11,7 13,7 15,8 26 14 39 21 SW 1020,3 50 0 0,0
15.09.2019 03:00:00 12,7 8,7 11,5 11,8 13,9 15,8 21 11 31 17 SW 1021,6 63 0 0,0
15.09.2019 02:00:00 12,5 9,0 11,4 11,9 14,1 15,8 21 11 31 17 SW 1022,8 48 0 0,0
15.09.2019 01:00:00 12,1 9,3 11,0 12,1 14,3 15,8 18 10 26 14 SW 1024,1 47 0 0,0
15.09.2019 00:00:00 12,1 9,2 10,9 12,3 14,6 15,8 16 9 24 13 SW 1025,2 53 0 0,0
14.09.2019 23:00:00 12,2 9,0 10,9 12,6 14,9 15,8 16 9 22 12 SSW 1025,9 51 0 0,0
14.09.2019 22:00:00 12,0 8,7 10,7 13,1 15,2 15,8 15 8 18 10 SW 1027,2 53 0 0,0
14.09.2019 21:00:00 11,7 8,8 10,0 13,9 15,5 15,8 11 6 18 10 SW 1028,1 51 0 0,0
14.09.2019 20:00:00 13,0 9,3 11,4 14,9 15,8 15,8 13 7 22 12 SW 1028,8 65 5 0,0
14.09.2019 19:00:00 14,8 9,2 13,8 16,2 15,9 15,8 15 8 31 17 WSW 1029,1 57 40 0,0
14.09.2019 18:00:00 16,0 9,0 16,2 17,0 15,8 15,8 18 10 32 17 WSW 1029,6 64 26 0,0
14.09.2019 17:00:00 16,9 8,7 17,4 17,8 15,6 15,8 20 11 31 17 W 1030,5 58 48 0,0
14.09.2019 16:00:00 16,9 8,5 17,4 18,0 15,3 15,8 18 10 31 17 WSW 1031,2 71 44 0,0
14.09.2019 15:00:00 16,5 7,5 16,9 18,1 14,8 15,8 22 12 32 18 WSW 1032,2 59 50 0,0
14.09.2019 14:00:00 17,6 8,0 20,0 17,7 14,2 15,8 18 10 30 16 WSW 1032,7 55 58 0,0
14.09.2019 13:00:00 16,4 6,8 19,2 16,6 13,6 15,8 21 11 29 15 W 1033,3 70 55 0,0
14.09.2019 12:00:00 16,2 8,7 18,1 15,3 13,1 15,8 16 8 25 14 W 1033,6 44 60 0,0
14.09.2019 11:00:00 15,4 9,3 16,9 13,7 12,7 15,8 16 9 22 12 WSW 1033,8 33 60 0,0
14.09.2019 10:00:00 14,1 10,1 15,6 11,9 12,5 15,8 13 7 19 10 WSW 1034,1 49 60 0,0
14.09.2019 09:00:00 12,0 9,6 12,7 10,4 12,5 15,8 11 6 16 9 WSW 1034,0 54 60 0,0
14.09.2019 08:00:00 9,9 8,1 9,8 9,5 12,6 15,8 11 6 14 8 W 1033,8 34 24 0,0
14.09.2019 07:00:00 8,3 7,2 6,8 9,4 12,9 15,8 9 5 14 7 W 1033,6 38 0 0,0
14.09.2019 06:00:00 8,5 7,2 7,0 9,6 13,1 15,8 11 6 14 8 WSW 1033,6 35 0 0,0
14.09.2019 05:00:00 8,5 7,1 6,9 9,8 13,4 15,8 10 6 15 8 W 1033,7 36 0 0,0
14.09.2019 04:00:00 8,4 7,1 6,9 10,1 13,7 15,8 11 6 16 8 WSW 1034,1 37 0 0,0
14.09.2019 03:00:00 8,3 6,9 6,8 10,5 14,0 15,8 12 6 16 9 W 1034,0 34 0 0,0
14.09.2019 02:00:00 8,7 7,0 7,1 10,9 14,4 15,8 11 6 15 8 W 1034,0 39 0 0,0
14.09.2019 01:00:00 9,0 7,4 7,4 11,4 14,7 15,8 9 5 13 7 WSW 1033,8 37 0 0,0
14.09.2019 00:00:00 9,3 7,7 7,5 11,8 15,1 15,8 9 5 15 8 W 1033,9 36 0 0,0
13.09.2019 23:00:00 10,0 8,1 8,2 12,4 15,5 15,9 10 6 16 8 W 1033,4 32 0 0,0
13.09.2019 22:00:00 10,7 8,5 8,5 13,1 15,9 15,9 9 5 16 9 W 1033,0 39 0 0,0
13.09.2019 21:00:00 12,0 8,4 10,0 14,0 16,3 15,9 12 6 26 14 W 1032,7 48 0 0,0
13.09.2019 20:00:00 13,7 8,5 12,1 15,1 16,6 15,9 14 8 35 19 W 1032,2 49 16 0,0
13.09.2019 19:00:00 15,3 7,9 14,6 16,3 16,8 15,9 18 10 34 18 WNW 1031,6 53 36 0,0
13.09.2019 18:00:00 16,1 7,9 16,0 17,4 16,9 15,9 22 12 39 21 WNW 1031,1 37 52 0,0
13.09.2019 17:00:00 16,6 8,2 17,6 18,0 16,8 15,9 27 14 44 24 WNW 1030,9 43 46 0,0
13.09.2019 16:00:00 17,5 6,6 18,6 18,7 16,6 15,9 28 15 42 23 W 1030,6 57 60 0,0
13.09.2019 15:00:00 17,6 8,1 19,5 18,8 16,3 15,9 24 13 41 22 NW 1030,2 53 59 0,0
13.09.2019 14:00:00 17,6 7,5 20,1 18,0 16,0 15,9 26 14 45 24 WNW 1029,5 53 50 0,0
13.09.2019 13:00:00 16,9 8,7 17,9 17,5 15,8 15,9 26 14 48 26 NW 1028,9 41 52 0,0
13.09.2019 12:00:00 16,9 8,5 19,2 16,8 15,6 15,9 26 14 45 24 NW 1028,7 47 53 0,0
13.09.2019 11:00:00 15,8 9,4 16,6 16,1 15,4 15,9 31 17 47 26 NW 1028,0 63 46 0,0
13.09.2019 10:00:00 15,6 11,2 17,2 15,5 15,4 15,9 24 13 39 21 NW 1026,7 75 58 0,0
13.09.2019 09:00:00 15,1 12,4 16,3 15,1 15,4 15,9 20 11 34 19 NW 1025,4 60 20 0,0
13.09.2019 08:00:00 14,7 12,3 14,2 15,2 15,5 15,9 18 10 40 21 NW 1024,5 75 0 0,0
13.09.2019 07:00:00 15,5 13,9 14,6 15,6 15,4 15,9 23 13 39 21 NW 1022,9 75 0 0,3
13.09.2019 06:00:00 17,0 15,9 16,2 15,7 15,4 15,9 24 13 38 21 W 1021,2 8 0 1,5
13.09.2019 05:00:00 17,0 16,3 16,5 15,4 15,3 15,9 24 13 38 21 WSW 1020,9 21 0 1,2
13.09.2019 04:00:00 16,3 15,3 15,6 15,2 15,3 15,9 24 13 39 21 SW 1021,1 12 0 0,6
13.09.2019 03:00:00 15,8 14,7 15,1 15,0 15,4 15,9 22 12 36 19 SW 1021,6 9 0 0,3
13.09.2019 02:00:00 16,5 13,6 15,8 14,9 15,4 15,9 23 12 33 18 SW 1022,3 14 0 0,0
13.09.2019 01:00:00 16,4 13,2 15,8 14,9 15,5 15,9 18 10 31 17 SW 1022,7 33 0 0,0
13.09.2019 00:00:00 16,3 13,3 15,7 14,8 15,6 15,9 20 11 31 17 SW 1023,2 33 0 0,0
12.09.2019 23:00:00 15,6 12,9 15,0 14,9 15,7 15,9 14 8 21 12 SW 1023,8 35 0 0,0
12.09.2019 22:00:00 15,3 12,7 14,6 14,9 15,9 15,9 11 6 18 10 SW 1024,1 34 0 0,0
12.09.2019 21:00:00 14,8 12,4 13,9 15,2 16,2 15,9 11 6 18 10 SW 1024,3 36 0 0,0
12.09.2019 20:00:00 16,1 12,1 14,8 16,1 16,3 15,9 15 8 28 15 WSW 1024,3 37 4 0,0
12.09.2019 19:00:00 17,0 11,6 16,1 17,0 16,4 15,9 23 13 41 22 WSW 1024,2 38 42 0,0
12.09.2019 18:00:00 18,3 11,7 18,6 17,7 16,3 16,0 24 13 38 20 WSW 1024,2 45 43 0,0
12.09.2019 17:00:00 18,9 12,1 19,8 18,1 16,1 16,0 29 15 42 23 W 1024,3 45 49 0,0
12.09.2019 16:00:00 18,3 12,8 18,3 17,8 15,8 16,0 23 13 39 21 W 1024,2 42 14 0,0
12.09.2019 15:00:00 18,9 13,0 20,0 17,9 15,5 16,0 21 11 40 22 WSW 1024,1 49 24 0,0
12.09.2019 14:00:00 17,8 13,5 18,3 17,5 15,2 16,0 24 13 40 22 SW 1024,1 44 18 0,0
12.09.2019 13:00:00 17,2 13,1 17,6 16,6 14,9 16,0 24 13 39 21 WSW 1024,0 52 0 0,0
12.09.2019 12:00:00 18,3 15,1 19,9 17,1 14,4 16,0 18 10 30 16 SW 1023,8 36 43 0,0
12.09.2019 11:00:00 16,8 14,4 17,6 15,5 14,1 16,0 19 10 27 15 SW 1023,6 34 18 0,0
12.09.2019 10:00:00 16,1 14,0 16,3 14,3 13,9 16,0 15 8 22 12 SW 1023,0 30 3 0,0
12.09.2019 09:00:00 15,1 12,7 15,2 13,2 13,8 16,0 16 8 22 12 SW 1022,3 34 3 0,0
12.09.2019 08:00:00 13,6 11,9 13,3 12,2 13,9 16,0 15 8 21 11 SW 1022,0 35 18 0,0
12.09.2019 07:00:00 12,0 10,9 11,0 11,9 14,1 16,0 14 8 18 10 SW 1021,5 31 0 0,0
12.09.2019 06:00:00 12,1 10,9 10,7 12,2 14,3 16,0 15 8 19 10 SSW 1020,8 27 0 0,0
12.09.2019 05:00:00 12,2 11,2 10,9 12,6 14,5 16,0 13 7 22 12 SW 1020,5 25 0 0,0
12.09.2019 04:00:00 12,9 11,9 11,8 13,1 14,6 16,0 16 9 24 13 SW 1020,1 26 0 0,0
12.09.2019 03:00:00 13,3 12,4 12,3 13,2 14,8 16,0 13 7 20 11 SW 1019,5 25 0 0,0
12.09.2019 02:00:00 13,6 12,9 12,7 13,5 14,9 16,0 15 8 22 12 SW 1019,2 25 0 0,0
12.09.2019 01:00:00 13,8 13,2 12,6 14,0 15,1 16,0 11 6 23 12 WSW 1018,4 15 0 0,0
12.09.2019 00:00:00 14,9 14,0 14,1 14,5 15,1 16,1 17 9 29 16 WSW 1017,7 21 0 0,0
11.09.2019 23:00:00 14,7 13,9 14,2 14,5 15,2 16,1 19 10 41 22 SW 1017,0 16 0 0,4
11.09.2019 22:00:00 14,1 13,3 13,6 14,5 15,3 16,1 23 13 38 21 SW 1016,7 5 0 0,6
11.09.2019 21:00:00 14,0 13,0 13,4 14,6 15,4 16,1 27 15 43 23 SW 1016,3 2,9 0 0,1
11.09.2019 20:00:00 14,0 12,9 13,4 14,8 15,5 16,1 27 15 50 27 SSW 1016,0 7 0 0,0
11.09.2019 19:00:00 14,1 13,0 13,6 15,2 15,6 16,1 29 16 43 23 SW 1016,3 7 0 1,8
11.09.2019 18:00:00 14,0 12,9 13,4 15,5 15,7 16,1 30 16 51 28 SW 1016,3 5 0 0,7
11.09.2019 17:00:00 16,4 12,0 16,3 15,9 15,7 16,1 32 17 52 28 SW 1016,2 37 0 0,0
11.09.2019 16:00:00 16,2 12,2 15,6 16,3 15,7 16,1 23 12 48 26 SW 1016,6 30 0 0,1
11.09.2019 15:00:00 17,7 11,5 17,5 17,0 15,5 16,1 30 16 53 29 SW 1016,5 32 0 0,0
11.09.2019 14:00:00 17,9 11,4 18,3 17,5 15,1 16,1 32 18 50 27 SW 1016,8 33 24 0,0
11.09.2019 13:00:00 17,8 11,4 18,7 17,3 14,6 16,1 26 14 54 29 SSW 1017,1 40 46 0,0
11.09.2019 12:00:00 17,5 11,7 19,0 16,5 14,1 16,1 29 16 44 24 SW 1017,2 38 60 0,0
11.09.2019 11:00:00 16,0 11,8 17,5 15,0 13,7 16,1 23 13 35 19 SSW 1017,6 27 60 0,0
11.09.2019 10:00:00 14,7 11,3 15,7 13,4 13,6 16,1 23 12 36 20 SSW 1017,8 25 60 0,0
11.09.2019 09:00:00 13,4 10,8 14,1 12,0 13,6 16,1 17 9 30 16 SSW 1017,6 24 60 0,0
11.09.2019 08:00:00 12,4 10,5 11,8 11,3 13,7 16,1 13 7 21 11 SSW 1017,7 23 41 0,0
11.09.2019 07:00:00 11,6 10,4 10,2 11,2 13,9 16,1 15 8 23 12 SW 1017,6 25 0 0,0
11.09.2019 06:00:00 10,3 9,5 8,9 11,5 14,2 16,1 10 6 18 10 SSW 1017,5 24 0 0,0
11.09.2019 05:00:00 11,0 10,1 9,8 11,8 14,4 16,2 14 8 18 10 SW 1017,6 38 0 0,0
11.09.2019 04:00:00 10,7 9,9 9,4 12,2 14,7 16,2 11 6 16 9 SW 1017,6 32 0 0,0
11.09.2019 03:00:00 11,3 10,3 10,1 12,6 14,9 16,2 14 8 19 11 SW 1017,4 39 0 0,0
11.09.2019 02:00:00 12,0 10,8 10,8 13,1 15,2 16,2 12 7 18 10 WSW 1017,2 41 0 0,0
11.09.2019 01:00:00 12,6 11,3 11,5 13,8 15,3 16,2 14 7 20 11 WSW 1017,0 42 0 0,0
11.09.2019 00:00:00 13,8 12,0 12,9 14,4 15,5 16,2 14 8 24 13 WSW 1016,8 45 0 0,0
10.09.2019 23:00:00 14,3 12,2 13,9 14,5 15,6 16,2 14 7 21 11 W 1016,3 36 0 0,0
10.09.2019 22:00:00 14,8 12,4 14,3 14,7 15,8 16,2 18 10 26 14 W 1015,8 52 0 0,0
10.09.2019 21:00:00 14,7 12,7 14,1 14,9 15,9 16,2 17 9 29 16 W 1015,4 54 0 0,0
10.09.2019 20:00:00 14,8 13,0 14,3 15,6 16,1 16,2 19 11 37 20 W 1014,6 60 0 0,0
10.09.2019 19:00:00 15,6 12,7 15,3 16,1 16,1 16,2 24 13 42 23 W 1014,2 75 0 0,0
10.09.2019 18:00:00 15,6 13,0 15,7 16,5 16,1 16,2 27 14 42 23 W 1013,7 73 2 0,0
10.09.2019 17:00:00 15,5 13,6 15,8 16,6 16,1 16,2 26 14 44 24 W 1013,1 67 0 0,1
10.09.2019 16:00:00 15,4 13,2 14,8 17,3 16,0 16,2 29 16 47 25 W 1012,8 7 0 0,0
10.09.2019 15:00:00 16,7 13,9 18,0 17,5 15,7 16,2 31 17 48 26 W 1012,3 75 1 0,0
10.09.2019 14:00:00 16,2 14,0 15,7 17,9 15,3 16,2 27 15 47 26 W 1012,0 18 25 0,1
10.09.2019 13:00:00 17,7 13,4 20,1 17,0 14,9 16,2 30 16 44 24 W 1011,4 61 36 0,0
10.09.2019 12:00:00 17,2 13,2 18,7 16,2 14,6 16,2 29 15 43 23 W 1011,2 67 29 0,0
10.09.2019 11:00:00 15,9 12,8 16,5 15,0 14,4 16,2 24 13 37 20 W 1011,3 41 1 0,0
10.09.2019 10:00:00 14,9 12,9 15,2 14,0 14,3 16,2 19 10 29 16 W 1011,2 42 0 0,0
10.09.2019 09:00:00 13,9 12,1 13,8 13,2 14,3 16,3 17 9 27 15 W 1011,1 35 0 0,0
10.09.2019 08:00:00 12,9 11,3 12,6 12,8 14,4 16,3 15 8 29 15 W 1010,9 37 0 0,0
10.09.2019 07:00:00 12,1 10,5 11,6 12,7 14,5 16,3 20 11 27 14 W 1010,8 47 0 0,0
10.09.2019 06:00:00 12,2 10,7 11,7 12,9 14,6 16,3 16 9 23 12 W 1010,7 48 0 0,0
10.09.2019 05:00:00 12,1 10,6 11,6 13,1 14,7 16,3 14 8 26 14 W 1010,9 60 0 0,0

tt = temperature
td = dewpoint
tt 5cm = temperature 5cm
tt -5cm = temperature -5cm
tt -20cm = temperature -20cm
tt -100cm = temperature -100cm
ff = wind speed
fx = gusts
dd = wind direction
ppp = reduced air pressure
vv = visibility
sd = sunshine duration
rr = precipitation

Next stations